Regional Weather Roundup
Issued by NWS

Home | Current Version | Previous Version | Graphics & Text | Print | Product List | Glossary On
Versions: 1 2 3 4 5 6 7 8 9 10 11 12 13 14 15 16 17 18 19 20 21 22 23 24 25 26 27 28 29 30 31 32 33 34 35 36 37 38 39 40 41 42 43 44 45 46 47 48 49 50
978
ASUS43 KDMX 122003
RWRIA

WEATHER ROUNDUP FOR IOWA
NATIONAL WEATHER SERVICE DES MOINES IA
200 PM CST FRI FEB 12 2016

NOTE: "FAIR" INDICATES FEW OR NO CLOUDS BELOW 12,000 FEET WITH NO
SIGNIFICANT WEATHER AND/OR OBSTRUCTIONS TO VISIBILITY.

* - THESE STATIONS ARE NOT NWS STATIONS...THUS NOT UNDER NWS
QUALITY CONTROL.  THEY ALSO DO NOT REPORT WEATHER SUCH
AS PRECIPITATION OR FOG.

IAZ001>003-012>014-020>022-031>034-043>046-122100-
   NORTHWEST IOWA

CITY           SKY/WX    TMP DP  RH WIND       PRES   REMARKS
CARROLL *      SUNNY     14   5  67 NW22      30.49S WCI  -4
CHEROKEE *     SUNNY     14   1  57 N15G23    30.53S WCI  -1
DENISON *      PTSUNNY   14   7  73 N17G23    30.49F WCI  -3
LE MARS *      SUNNY     14   5  67 N15       30.56S WCI  -1
ORANGE CITY *  LGT SNOW  12   5  73 N20       30.51F WCI  -6
SHELDON *      MOSUNNY   10   3  72 NW22G28   30.50F WCI  -9
SIOUX CITY     SUNNY     19   5  54 N14       30.56S WCI   6
SPENCER        SUNNY     11   0  61 N22       30.49S WCI  -8
STORM LAKE *   SUNNY     12   1  62 N25       30.48F WCI  -8
$$

IAZ055>058-069>071-079>083-090>094-122100-
   SOUTHWEST IOWA

CITY           SKY/WX    TMP DP  RH WIND       PRES   REMARKS
ATLANTIC *     SUNNY     18   7  62 N18       30.50S WCI   2
AUDUBON *      MOSUNNY   16   7  67 NW15G24   30.49S WCI   1
CLARINDA *     MOSUNNY   27  10  50 N16G23    30.52R WCI  14
COUNCIL BLFS * PTSUNNY   21  14  73 N14       30.50S WCI   8
CRESTON *      SUNNY     19   7  58 NW22      30.47S WCI   3
HARLAN  *      MOSUNNY   18   9  68 N16G23    30.54S WCI   3
LAMONI         SUNNY     23   5  46 N18G28    30.44R WCI   9
RED OAK *      MOSUNNY   23  10  58 N17G24    30.51S WCI   9
SHENANDOAH *   SUNNY     27  10  50 N21G31    30.52S WCI  13
$$

IAZ047>049-059>061-072>074-084-122100-
   CENTRAL IOWA

CITY           SKY/WX    TMP DP  RH WIND       PRES   REMARKS
AMES           SUNNY     16   4  59 NW25G32   30.46R WCI  -3
ANKENY *       SUNNY     18   1  49 N22       30.46S WCI   0
BOONE *        SUNNY     14   1  57 N18G25    30.44S WCI  -3
CHARITON *     SUNNY     21   7  53 NW17G25   30.44R WCI   7
DES MOINES     MOSUNNY   19   3  49 NW18G26   30.47R WCI   4
GRINNELL*      SUNNY     18   7  62 NW23      30.41S WCI   0
KNOXVILLE *    SUNNY     19   3  49 N17G29    30.43R WCI   4
MARSHALLTOWN   SUNNY     16   5  62 NW24      30.42R WCI  -2
NEWTON *       FLURRIES  18   3  53 N23G32    30.42R WCI   0
PELLA *        SUNNY     20   5  52 NW18G24   30.45R WCI   5
$$

IAZ004>006-015-016-023>025-035-036-122100-
   NORTH CENTRAL IOWA

CITY           SKY/WX    TMP DP  RH WIND       PRES   REMARKS
ALGONA *       MOSUNNY   12   3  67 N18G32    30.45R WCI  -5
CLARION *      MOSUNNY   12   1  62 NW28      30.44R WCI  -9
ESTHERVILLE    SUNNY      9   1  70 NW26G33   30.47S WCI -13
FORT DODGE *   SUNNY     14   1  57 NW14G24   30.48R WCI  -1
MASON CITY     SUNNY     12   0  58 NW28      30.42R WCI  -9
FOREST CITY *    N/A     12   1  62 NW21G28   30.42R WCI  -6
WEBSTER CITY * SUNNY     14   5  67 NW25      30.44S WCI  -5
IOWA FALLS *     N/A     15   5  64 NW25G31   30.43S WCI  -5
$$

IAZ007>011-017>019-026>030-037>042-050>054-066-122100-
   NORTHEAST IOWA

CITY           SKY/WX    TMP DP  RH WIND       PRES   REMARKS
CEDAR RAPIDS   SUNNY     19   7  59 NW24      30.35R WCI   2
CHARLES CITY * SUNNY     12   0  57 NW21G30   30.38R WCI  -6
CLINTON *      SUNNY     23   7  50 NW24G33   30.28R WCI   7
DECORAH *      SUNNY     12  -4  48 N18G32    30.31R WCI  -5
DUBUQUE        SUNNY     17   3  54 NW21G29   30.27R WCI   0
MONTICELLO *   SUNNY     18   3  53 NW23G35   30.32S WCI   0
OELWEIN *      SUNNY     14   3  62 NW29      30.36R WCI  -7
WATERLOO       SUNNY     15   2  56 NW24      30.38S WCI  -4
$$

IAZ064-065-067-068-078-122100-
   EAST CENTRAL IOWA

CITY           SKY/WX    TMP DP  RH WIND       PRES   REMARKS
DAVENPORT      SUNNY     23   4  44 NW24G35   30.29S WCI   7
IOWA CITY      MOSUNNY   22   5  48 NW23G35   30.37S WCI   6
MT. PLEASANT * MOSUNNY   27  12  53 NW16G25   30.36R WCI  15
MUSCATINE *    SUNNY     25   5  42 NW25G32   30.35R WCI   9
QUAD CITIES    SUNNY     25   4  40 NW20G37   30.29S WCI  11
$$

IAZ062-063-075>077-085>089-095>099-122100-
   SOUTHEAST IOWA

CITY           SKY/WX    TMP DP  RH WIND       PRES   REMARKS
BURLINGTON     MOSUNNY   25  11  55 NW20G31   30.33S WCI  11
FAIRFIELD *    FLURRIES  23   7  50 NW24G31   30.38R WCI   7
FORT MADISON * PTSUNNY   25  16  68 NW16G26   30.35R WCI  12
KEOKUK *       PTSUNNY   27  12  54 NW15G24   30.36R WCI  15
OSKALOOSA *      N/A     19  10  68 NW22      30.42R WCI   3
OTTUMWA        SUNNY     20   8  60 NW28      30.40S WCI   2
WASHINGTON *   SUNNY     23   5  46 NW28G35   30.38R WCI   6
$$

ABBREVIATIONS USED IN REMARKS
   TC - TEMPERATURES IN CELSIUS
  WCI - WIND CHILL INDEX
   HX - HEAT INDEX
  VSB - VISIBILITY
$$





USA.gov is the U.S. government's official web portal to all federal, state and local government web resources and services.